SCP
0 0 0 1 1 1 1 0 0 0 0 0 0 0 0 0 0 1 1 1 1 2 4 4 4 4 4 3 3 3 3 3 3 2 2 2 2 2 2 2 2 2 1 1 1 1 1 1 1
0 0 0 1 1 1 0 0 0 0 0 0 0 0 0 0 0 1 1 1 2 3 4 4 4 4 4 3 3 3 3 3 2 2 2 2 2 2 2 2 2 2 1 1 1 1 1 1 1
0 0 1 1 1 1 0 0 0 0 0 0 0 0 0 1 1 1 1 1 2 3 4 4 4 4 4 3 3 3 3 2 2 2 2 2 2 2 2 2 2 2 1 1 1 1 1 1 1
1 1 1 1 1 1 0 0 0 0 0 0 0 0 1 1 1 1 1 1 2 3 4 5 5 4 4 4 3 3 3 2 2 2 2 2 2 2 2 2 2 2 2 1 1 1 1 1 1
1 1 1 1 1 1 0 0 0 0 0 0 0 1 1 1 2 2 2 2 3 3 4 4 5 4 4 4 3 3 3 2 2 2 2 3 3 3 2 2 2 2 2 1 1 1 1 1 1
1 1 1 1 1 0 0 0 0 0 0 0 0 1 1 2 2 2 2 3 3 3 4 4 5 5 5 4 4 4 3 3 2 2 2 3 3 3 3 2 2 2 2 1 1 1 0 1 1
1 1 1 1 0 0 0 0 0 0 0 0 1 1 2 2 3 3 3 3 4 4 4 4 4 5 5 5 4 4 3 3 2 2 2 3 4 4 3 3 2 2 2 2 1 0 0 0 0
1 0 0 0 0 0 0 0 0 0 0 1 1 1 2 3 3 3 3 4 4 4 5 5 5 5 5 4 4 3 3 2 2 2 2 2 3 4 4 3 3 3 2 2 1 0 0 0 0
1 0 0 0 0 0 0 0 0 0 1 1 1 1 2 2 3 4 4 4 5 5 6 5 5 5 5 5 4 3 3 2 2 2 2 2 2 3 3 3 2 2 2 1 1 0 0 0 0
0 0 0 0 0 0 0 0 0 0 1 1 1 1 2 2 3 4 4 5 5 6 6 5 5 5 5 6 5 4 3 3 2 2 2 2 2 2 2 2 2 2 2 1 1 0 0 0 0
0 0 0 0 0 0 0 0 0 0 0 0 1 1 2 2 2 3 4 5 6 6 6 5 4 5 6 7 7 6 5 4 3 2 2 2 2 2 2 3 2 2 1 1 1 0 0 0 0
0 0 0 0 0 0 0 0 0 0 0 0 1 1 2 2 2 2 3 5 6 7 6 5 4 5 5 7 8 8 7 5 4 3 3 2 2 2 2 3 3 2 1 1 1 0 0 0 0
0 0 0 0 0 0 0 0 0 0 0 0 1 1 2 2 2 2 3 5 7 7 5 4 4 4 5 6 8 9 8 6 5 4 3 3 2 2 2 2 2 2 1 1 1 1 0 0 0
0 0 0 0 0 0 0 0 0 0 1 1 1 1 2 3 2 2 3 4 6 6 5 4 4 4 5 5 7 9 9 7 6 4 3 3 2 2 2 2 2 1 1 1 1 1 0 0 0
0 0 0 0 0 0 0 0 0 1 1 1 1 2 2 3 3 2 2 4 5 5 5 4 4 4 4 5 6 8 9 9 7 5 4 3 2 2 2 1 1 1 1 1 1 1 0 0 0
0 0 0 0 0 0 0 0 0 1 1 2 2 1 1 2 3 3 3 3 5 5 4 4 4 4 4 5 5 7 9 9 8 6 4 3 3 2 1 1 1 1 1 0 0 0 0 0 0
0 0 0 0 0 0 0 0 0 1 1 1 1 1 1 2 3 3 3 4 4 4 3 3 4 3 4 4 5 6 7 8 8 7 5 4 3 2 1 1 1 1 0 0 0 0 0 0 0
0 0 0 0 0 0 0 0 0 0 1 1 1 1 2 2 3 3 3 3 4 3 3 3 4 3 3 4 5 6 6 7 7 7 5 4 3 2 1 1 0 0 0 0 0 0 0 0 0
0 0 0 0 0 0 0 0 0 0 1 1 1 1 2 3 3 3 3 3 3 2 3 3 4 3 3 4 5 5 5 5 5 4 3 2 2 1 1 1 1 0 0 0 0 0 0 0 0
0 0 0 0 0 0 0 0 0 0 1 1 1 1 2 2 2 2 2 2 2 2 3 3 3 3 3 4 4 5 4 3 2 2 1 1 1 1 1 1 1 1 0 0 0 0 0 0 0
0 0 0 0 0 0 0 0 0 0 0 0 0 1 1 1 1 1 2 2 2 2 3 3 3 3 3 4 4 3 3 2 1 1 1 1 1 0 1 1 1 1 1 1 0 0 0 0 0
0 0 0 0 0 0 0 0 0 0 0 0 0 0 0 1 1 1 1 1 1 2 2 3 3 3 3 3 3 2 2 1 1 1 1 1 1 1 1 1 1 1 1 1 1 1 0 0 0
0 0 0 0 0 0 0 0 0 0 0 0 0 0 1 0 0 0 1 1 1 1 2 3 3 3 2 2 2 2 2 1 1 1 1 1 1 1 1 1 1 1 1 1 1 1 1 0 0
0 0 0 0 0 0 0 0 0 0 0 0 0 1 1 1 1 1 1 1 1 1 2 2 2 2 2 1 1 1 1 1 1 1 1 1 1 1 1 1 1 1 1 1 1 1 1 1 1
0 0 0 0 0 0 0 0 0 0 0 0 0 0 1 1 1 1 1 1 1 1 2 2 2 2 2 1 1 1 1 1 1 1 1 1 1 1 1 1 1 1 1 1 1 1 1 1 1
0 0 0 0 0 0 0 0 0 0 0 0 0 0 0 0 1 1 1 1 1 1 1 1 1 2 1 1 1 1 1 1 1 1 1 1 1 1 1 1 1 1 1 1 1 1 1 1 1
0 0 0 0 0 0 0 0 0 0 0 0 0 0 0 0 1 1 1 1 1 1 1 1 1 1 1 1 1 1 1 1 1 1 1 1 1 1 1 1 1 1 1 1 1 1 1 1 1
0 0 0 0 0 0 0 0 0 0 0 0 0 0 0 0 1 1 1 1 0 1 1 1 1 1 1 2 1 1 1 1 1 1 1 1 1 1 1 1 1 1 1 1 1 1 1 1 1
0 0 0 0 0 0 0 0 0 0 0 0 0 0 0 0 0 1 1 1 0 1 1 1 1 1 2 2 2 1 1 1 1 1 0 1 1 1 2 1 1 1 1 1 1 1 1 1 1
0 0 0 0 0 0 0 0 0 0 0 0 0 0 0 0 0 1 1 1 0 1 1 1 1 1 1 2 2 2 1 1 1 0 0 0 1 2 2 2 1 1 1 1 1 1 1 1 1
Wind_Speed
7 5 3 3 5 6 10 7 5 4 4 2 1 3 4 3 3 2 4 5 7 9 11 11 9 10 10 10 10 10 10 10 10 11 11 11 11 11 11 11 11 11 11 11 12 12 12 12 12
5 3 2 3 7 9 9 8 7 5 1 1 2 3 3 2 1 2 2 5 7 9 10 11 10 10 10 10 10 10 10 10 10 10 10 10 11 11 11 11 11 11 11 11 12 12 12 12 11
3 2 2 4 7 10 7 5 4 3 2 2 2 2 2 1 0 0 2 6 8 9 10 10 10 10 10 11 10 10 10 9 10 10 10 10 10 11 11 11 11 11 11 11 11 11 11 11 11
2 2 3 6 10 8 5 3 3 3 3 2 3 2 1 2 3 2 2 6 9 10 10 11 9 11 10 10 10 10 9 9 9 9 9 9 10 10 10 11 11 11 11 11 11 11 10 10 10
1 2 5 7 10 7 4 3 3 4 3 2 3 3 1 2 4 3 3 6 8 9 9 11 10 11 10 10 10 9 9 9 9 8 8 9 9 9 10 11 11 11 11 11 10 10 9 10 10
2 3 6 10 10 7 6 4 5 6 4 2 3 4 1 3 3 3 2 5 6 7 8 9 9 9 10 9 9 9 8 8 8 8 7 8 8 9 10 10 10 11 11 11 11 10 10 9 9
2 3 7 9 8 7 5 3 5 5 5 3 2 3 2 2 2 1 2 4 5 5 6 7 8 8 8 8 8 8 8 8 7 7 7 7 8 9 10 9 9 10 10 10 10 9 9 9 9
1 2 5 8 8 6 3 3 2 4 4 2 2 4 2 2 1 1 2 4 5 5 5 6 7 7 7 7 7 7 7 7 7 7 6 6 7 7 8 8 8 9 9 9 9 9 9 8 8
2 4 7 7 6 4 2 3 2 3 2 2 2 4 4 2 1 2 2 3 4 4 4 5 6 6 6 6 6 7 7 6 6 6 6 5 5 6 6 6 7 8 8 8 8 8 8 7 7
3 5 6 3 3 2 2 3 3 3 4 4 4 3 3 0 2 3 3 4 4 4 4 4 5 5 5 5 5 5 5 5 5 5 6 4 3 4 5 6 7 7 7 7 7 7 7 4 4
3 5 3 2 2 3 4 4 3 5 5 4 4 3 3 2 2 3 4 5 5 4 4 4 5 5 5 4 4 3 3 3 4 5 5 4 3 3 4 4 5 5 5 5 6 5 3 2 2
2 3 3 3 3 4 5 4 4 5 5 5 5 4 3 3 4 4 4 4 4 4 4 3 5 5 5 4 4 4 3 3 3 4 5 3 2 3 4 3 3 3 3 3 3 2 3 3 3
4 3 3 3 3 4 5 6 6 6 6 6 5 5 5 4 4 4 4 3 3 3 4 3 4 5 5 5 4 4 4 4 4 3 4 4 3 3 3 3 3 3 3 3 3 3 3 3 2
1 2 4 5 5 5 6 7 7 7 5 5 5 6 6 5 4 3 3 3 3 3 3 3 3 4 5 4 4 4 4 4 4 3 4 5 3 3 3 3 3 3 3 3 3 3 3 2 2
2 3 3 4 5 4 5 7 7 6 6 5 5 5 5 4 4 4 4 3 3 3 3 3 3 3 4 4 5 4 4 4 4 4 4 5 4 4 3 3 3 3 3 3 3 3 2 2 2
3 4 3 2 3 3 5 8 4 3 4 5 5 5 4 4 4 4 3 3 3 3 3 2 2 2 3 3 3 3 4 4 4 4 4 5 5 4 3 2 3 3 3 3 3 3 3 3 3
3 4 4 3 2 3 6 8 5 4 5 6 5 5 4 4 4 4 3 3 3 3 3 2 2 2 2 3 3 3 3 4 3 3 3 4 4 5 4 3 3 3 3 3 3 3 3 3 3
4 5 5 5 2 4 7 10 9 6 7 7 6 6 5 5 5 4 4 4 3 3 2 2 2 2 2 2 2 2 2 2 2 3 3 4 4 4 4 3 3 3 3 3 3 3 3 2 2
4 6 7 6 5 6 9 11 10 8 8 8 7 6 5 5 5 5 5 4 3 3 2 3 2 2 2 2 2 2 2 2 2 2 2 3 4 4 4 3 3 4 3 3 4 3 3 2 2
5 6 7 6 4 6 9 12 11 9 9 8 7 7 6 6 6 5 5 4 4 4 3 4 4 4 3 3 2 2 2 1 1 2 2 2 3 4 3 4 3 4 3 4 4 3 2 1 2
5 7 7 7 7 6 8 10 8 6 6 5 6 6 6 6 6 5 4 4 4 4 4 4 5 4 4 3 1 1 1 1 1 2 2 2 3 3 3 3 3 4 4 3 3 3 3 2 2
6 6 7 7 7 4 4 7 6 5 5 5 6 6 6 5 6 5 4 4 4 4 3 4 4 3 3 3 3 3 3 2 3 2 2 2 3 3 3 3 3 3 3 4 3 3 3 3 3
4 5 5 6 6 7 6 7 6 4 6 6 6 6 5 5 5 4 5 5 4 4 3 4 4 3 3 3 4 4 3 2 2 2 2 2 2 2 2 3 3 3 3 4 3 3 3 3 3
3 3 3 4 4 7 6 7 6 3 5 6 4 4 4 4 4 4 4 4 4 3 3 3 4 4 4 4 4 5 4 3 3 3 3 3 2 2 3 3 3 3 3 3 3 3 3 3 3
2 3 2 2 3 5 1 6 7 4 5 5 5 3 2 2 2 3 3 4 4 3 3 3 4 3 3 4 4 4 5 5 5 5 4 4 3 3 3 3 3 3 3 3 3 3 3 4 4
2 3 3 4 4 4 3 7 5 3 4 4 3 2 2 2 2 3 3 4 3 3 3 3 3 3 3 3 3 4 4 4 4 5 4 4 3 3 3 4 4 4 3 3 3 3 3 3 4
3 3 3 3 4 6 6 6 6 4 5 5 4 3 4 3 3 3 3 3 3 3 3 3 2 3 3 3 2 3 3 4 4 4 4 3 3 3 4 4 3 3 3 3 3 3 3 4 4
3 2 2 3 4 6 6 6 5 5 5 5 4 4 5 4 4 4 4 4 3 3 3 2 2 2 2 2 2 2 3 3 3 3 3 3 4 3 3 3 4 3 3 4 3 3 3 4 4
2 2 3 3 4 5 7 4 2 4 4 5 5 5 6 5 4 4 5 4 3 3 2 2 1 2 1 2 2 2 2 2 2 2 3 3 3 4 4 4 4 4 4 4 4 4 4 4 3
4 4 4 4 4 4 6 5 2 3 5 5 6 5 5 5 5 5 4 4 3 3 2 2 1 2 1 1 2 2 2 2 2 2 2 3 3 4 4 4 4 4 4 4 4 4 4 4 4
Wind_Direction
330 313 278 235 220 222 227 216 218 198 203 206 226 233 234 227 244 35 60 143 148 155 154 151 145 145 142 138 133 131 131 128 126 125 123 125 124 120 118 116 113 110 107 104 102 101 98 95 92
327 302 238 228 231 223 219 214 211 217 196 182 207 224 225 216 328 35 96 150 156 156 156 156 145 146 142 136 134 132 130 132 129 127 125 127 126 123 121 119 115 112 109 106 103 100 98 97 95
313 292 235 218 228 232 219 196 211 216 210 221 201 224 263 323 9 6 102 163 161 156 156 148 148 147 144 139 136 134 132 134 134 130 128 128 127 124 121 119 117 114 111 107 103 101 100 99 96
271 202 218 230 226 231 242 208 209 196 194 231 230 185 158 29 346 350 143 170 161 157 156 148 153 148 144 139 136 134 133 131 132 133 132 129 127 125 123 119 116 114 112 108 104 102 100 100 98
257 215 211 225 235 226 229 256 240 228 216 210 238 224 183 41 15 46 146 167 160 157 155 152 153 149 144 141 140 140 136 136 131 131 133 130 129 127 124 120 117 116 113 111 108 104 101 102 101
200 216 220 226 227 227 223 244 249 239 228 219 242 240 182 79 45 51 130 157 155 154 152 151 148 146 143 141 141 140 139 133 132 124 129 131 131 132 127 125 122 121 119 115 112 108 103 99 98
208 220 231 232 232 229 228 237 238 242 234 240 282 242 171 94 36 70 132 144 142 146 146 148 152 149 142 139 139 138 134 131 126 124 117 125 127 135 132 129 127 126 123 120 117 113 107 102 98
267 228 228 226 232 236 234 233 246 257 254 293 274 249 213 19 7 105 127 134 138 143 146 146 149 152 155 151 135 132 131 128 125 120 107 113 125 128 129 133 129 128 128 126 121 118 112 106 101
212 225 232 225 230 236 251 251 250 287 258 256 282 313 342 15 125 129 137 135 141 147 150 152 151 152 154 154 143 141 134 129 132 129 117 125 150 143 136 125 125 129 129 129 127 123 117 113 108
211 222 236 254 256 257 277 286 296 251 245 251 260 305 338 87 170 173 179 170 164 162 161 160 158 159 156 153 155 160 159 160 167 159 155 160 155 142 133 117 118 123 125 127 125 125 131 137 129
210 225 227 251 281 278 276 289 299 263 258 266 278 305 328 282 228 209 200 191 184 173 166 171 166 168 162 158 160 161 165 173 176 169 162 163 150 148 147 142 137 140 145 144 139 151 152 148 131
201 225 240 263 294 280 279 283 280 269 274 298 294 291 281 268 247 231 224 213 203 188 181 180 176 174 171 168 168 168 169 177 178 174 168 166 159 164 163 160 158 159 161 162 166 164 154 155 156
220 229 248 264 288 287 280 270 270 272 276 283 276 267 264 260 255 248 233 232 223 209 199 191 186 180 176 175 176 177 180 181 180 178 175 173 174 171 178 167 167 172 169 173 178 173 169 175 176
222 234 267 271 269 274 275 279 263 263 260 259 260 259 264 265 270 268 249 237 243 234 221 203 189 189 184 184 184 182 181 179 180 178 185 178 178 175 183 174 174 174 180 180 188 183 184 191 193
229 247 263 272 264 265 276 276 257 264 253 249 251 255 266 266 268 258 262 244 246 244 238 218 202 198 193 191 192 188 180 181 185 179 185 186 181 178 183 187 178 178 180 181 183 178 193 200 199
214 229 241 255 259 255 247 264 277 278 251 248 250 255 263 267 268 263 269 269 253 252 241 232 201 197 201 198 202 196 189 187 190 183 183 191 187 182 178 192 184 179 183 184 184 190 195 200 209
205 234 246 255 249 255 241 262 279 271 256 255 257 254 253 263 270 266 263 267 254 241 233 228 206 196 200 201 204 200 193 194 194 186 185 190 192 189 183 189 187 179 187 191 192 195 206 210 216
225 241 252 257 271 265 256 264 275 268 258 256 256 253 248 256 262 259 254 251 252 240 232 226 212 201 194 190 189 183 186 196 193 193 193 189 189 193 192 187 188 179 184 195 200 192 203 214 217
258 256 267 275 287 277 265 272 274 268 257 253 253 252 253 258 264 258 248 242 243 237 230 230 219 206 185 192 191 189 201 201 195 200 200 191 188 189 197 191 188 186 190 202 204 193 193 204 198
242 251 268 279 289 281 276 276 273 265 255 255 256 253 252 256 259 256 250 249 242 234 230 228 224 213 198 208 213 211 208 216 201 197 201 201 202 194 193 197 193 192 190 198 204 202 201 206 211
250 255 267 281 298 268 275 269 250 244 246 256 259 262 262 257 258 257 258 259 256 247 243 237 228 222 211 205 192 164 168 195 203 208 210 210 213 205 196 199 199 196 191 199 208 211 216 214 214
260 269 272 274 279 279 276 282 263 255 256 257 252 252 256 257 254 254 256 255 255 254 252 246 228 221 215 199 187 183 199 211 235 235 224 217 216 213 206 199 197 205 199 197 206 214 222 219 220
263 290 276 265 264 274 253 259 268 257 262 263 252 248 250 252 250 247 249 250 254 253 248 243 220 212 214 205 195 198 211 219 219 215 212 212 218 216 209 209 203 204 207 200 202 205 215 225 229
262 274 262 244 244 257 247 246 270 254 279 286 276 255 245 242 251 255 254 252 261 252 240 234 218 214 215 210 205 207 210 209 207 212 212 209 209 213 210 216 216 213 216 206 203 203 208 223 229
253 264 269 240 231 250 227 245 258 287 297 293 283 268 265 241 245 257 260 260 250 245 246 242 229 224 226 219 216 215 215 212 211 213 214 213 210 217 214 212 217 218 220 216 209 209 209 216 218
252 256 267 276 275 289 260 248 264 333 324 313 301 296 302 294 286 282 278 272 255 251 249 249 244 240 235 224 225 223 227 224 220 219 219 219 220 220 215 213 213 213 214 213 208 209 217 215 217
231 228 289 273 280 274 260 271 280 311 316 316 306 311 318 310 304 299 304 309 290 269 267 260 254 245 236 233 229 224 229 236 236 233 227 222 221 213 208 214 214 213 211 210 208 210 220 220 220
284 242 229 243 270 272 272 269 283 296 301 305 305 307 309 308 308 314 312 306 294 282 277 270 262 249 239 233 226 223 229 237 238 231 228 224 220 213 202 210 213 213 213 212 209 212 218 227 224
198 202 235 240 272 275 283 281 324 294 314 312 312 315 314 317 312 307 303 296 298 301 293 281 274 269 245 240 237 238 238 244 237 231 231 225 219 212 204 204 211 215 214 213 211 213 218 222 227
254 237 219 243 248 253 276 284 31 317 322 317 319 318 314 317 314 315 312 308 312 309 304 299 287 283 272 262 249 242 229 224 233 237 237 225 218 216 209 205 211 216 218 216 213 214 220 227 231